Погода в Усть-Абакане

Россия / Республика Хакасия     53°49′58″N   91°23′39″E
темп.,
°C
ветер,
м/с
пор.,
м/с
влажн.,
%
обл.,
%
осадки,
мм/ч
давл.,
гПа
погр.,
м
27 июля, вт
вт2701:00+19ю22848 0.3 100215
04:00+17ююз2292100 0.4 100226
07:00+19ююз2384100 0.7 1003131
10:00+23зсз1166100 0.2 1004568
13:00+24с336398 4.3 1003922
16:00+25с445935 1.7 10041250
19:00+20ссз4981100 3.8 1005367
22:00+18ссз2286100 1.1 100644
28 июля, ср
ср2801:00+16ссз4983100 1.1 1007425
04:00+14ссз3876100 0.0 1007381
07:00+14сз3675100 0.1 1009475
10:00+15ссз4667100 0.0 1009651
13:00+17с2362100 0.0 1010972
16:00+19ссв125490 0.0 10091470
19:00+17зюз336721 0.1 1010436
22:00+12юз11891 0.0 101111
29 июля, чт
чт2901:00+11вюв118958 0.0 101110
04:00+12юв118794 0.0 101111
07:00+13в1182100 0.0 101283
10:00+15вюв117394 0.0 1011450
13:00+20в22565 0.0 10101074
16:00+22всв22498 0.0 10091617
19:00+20всв44630 0.0 1009491
22:00+15всв1275100 0.0 100911
30 июля, пт
пт3001:00+14св1277100 0.0 100911
04:00+14св227995 0.0 100911
07:00+15всв117592 0.0 101085
10:00+19с1161100 0.0 1011584
13:00+23всв114984 0.0 10101503
16:00+24с1143100 0.1 10102215
19:00+20ссв236298 0.1 101257
22:00+17ссз116924 0.1 101311
31 июля, сб
сб3101:00+15ссз22776 0.1 101414
04:00+13сз1182100 0.0 101512
07:00+15сз127720 0.0 1016128
10:00+19ссз23595 0.0 1015662
13:00+23ссв33464 0.0 10141411
16:00+24ссв23380 0.0 10141785
19:00+24с01460 0.0 1014271
22:00+17ююв21570 0.0 101511